| time (UTC) | temp C | wind direction | speed KPH | gust KPH | rain 1hr cm | rain 24hr cm | rain mn cm | humidity % | barometer mb |
| 20260507144031 | 13 | 27 | 3.2 | 9.7 | 0.00 | 2.01 | 1.02 | 72 | 1014.9 |
| 20260507143031 | 13 | 25 | 1.6 | 6.4 | 0.00 | 2.03 | 1.02 | 72 | 1015.1 |
| 20260507142030 | 14 | 24 | 4.8 | 9.7 | 0.00 | 2.03 | 1.02 | 72 | 1015.0 |
| 20260507141030 | 14 | 27 | 1.6 | 4.8 | 0.00 | 2.08 | 1.02 | 67 | 1015.0 |
| 20260507140030 | 13 | 46 | 0.0 | 9.7 | 0.00 | 2.11 | 1.02 | 68 | 1015.0 |
| 20260507135030 | 13 | 32 | 1.6 | 6.4 | 0.00 | 2.13 | 1.02 | 70 | 1015.1 |
| 20260507134030 | 13 | 194 | 1.6 | 4.8 | 0.00 | 2.16 | 1.02 | 70 | 1015.3 |
| 20260507133030 | 13 | 37 | 1.6 | 6.4 | 0.00 | 2.21 | 1.02 | 72 | 1015.2 |
| 20260507132030 | 12 | 30 | 3.2 | 6.4 | 0.00 | 2.24 | 1.02 | 76 | 1015.3 |
| 20260507131030 | 13 | 27 | 4.8 | 9.7 | 0.00 | 2.31 | 1.02 | 77 | 1015.2 |
| 20260507130030 | 13 | 18 | 0.0 | 3.2 | 0.00 | 2.34 | 1.02 | 75 | 1015.2 |
| 20260507125030 | 13 | 34 | 3.2 | 6.4 | 0.00 | 2.36 | 1.02 | 77 | 1015.3 |
| 20260507124030 | 12 | 35 | 4.8 | 12.9 | 0.00 | 2.39 | 1.02 | 79 | 1015.3 |
| 20260507123030 | 12 | 19 | 3.2 | 6.4 | 0.00 | 2.39 | 1.02 | 78 | 1015.2 |
| 20260507122030 | 12 | 44 | 0.0 | 3.2 | 0.00 | 2.39 | 1.02 | 79 | 1015.2 |
| 20260507121030 | 12 | 88 | 0.0 | 1.6 | 0.00 | 2.41 | 1.02 | 79 | 1015.3 |
| 20260507120031 | 12 | 38 | 1.6 | 4.8 | 0.00 | 2.44 | 1.02 | 81 | 1015.2 |
| 20260507115030 | 12 | 35 | 0.0 | 1.6 | 0.00 | 2.46 | 1.02 | 81 | 1015.1 |
| 20260507114030 | 12 | 30 | 3.2 | 6.4 | 0.00 | 2.49 | 1.02 | 83 | 1015.1 |
| 20260507113030 | 12 | 43 | 1.6 | 4.8 | 0.00 | 2.51 | 1.02 | 80 | 1015.2 |
| 20260507112030 | 12 | 52 | 0.0 | 3.2 | 0.00 | 2.51 | 1.02 | 78 | 1015.1 |
| 20260507111030 | 12 | 173 | 1.6 | 4.8 | 0.00 | 2.54 | 1.02 | 80 | 1015.1 |
| 20260507110031 | 12 | 33 | 3.2 | 6.4 | 0.00 | 2.54 | 1.02 | 80 | 1015.1 |
| 20260507105031 | 12 | 30 | 3.2 | 11.3 | 0.00 | 2.54 | 1.02 | 80 | 1015.1 |
| 20260507104031 | 12 | 27 | 3.2 | 6.4 | 0.00 | 2.57 | 1.02 | 83 | 1015.2 |
| 20260507103030 | 11 | 157 | 0.0 | 1.6 | 0.00 | 2.57 | 1.02 | 84 | 1015.2 |
| 20260507102031 | 11 | 233 | 1.6 | 3.2 | 0.00 | 2.57 | 1.02 | 86 | 1015.2 |
| 20260507101030 | 11 | 357 | 0.0 | 3.2 | 0.00 | 2.57 | 1.02 | 89 | 1015.2 |
| 20260507100030 | 11 | 7 | 0.0 | 1.6 | 0.00 | 2.57 | 1.02 | 88 | 1015.1 |
| 20260507095030 | 10 | 31 | 0.0 | 4.8 | 0.00 | 2.57 | 1.02 | 89 | 1015.2 |
| 20260507094030 | 10 | 33 | 1.6 | 4.8 | 0.00 | 2.57 | 1.02 | 89 | 1015.1 |
| 20260507093030 | 10 | 52 | 1.6 | 4.8 | 0.00 | 2.57 | 1.02 | 89 | 1015.0 |
| 20260507092030 | 10 | 160 | 1.6 | 6.4 | 0.00 | 2.57 | 1.02 | 89 | 1015.1 |
| 20260507091030 | 10 | 121 | 0.0 | 3.2 | 0.00 | 2.57 | 1.02 | 91 | 1014.9 |
| 20260507090031 | 10 | 75 | 0.0 | 3.2 | 0.00 | 2.57 | 1.02 | 91 | 1015.0 |
| 20260507085031 | 10 | 38 | 1.6 | 6.4 | 0.00 | 2.57 | 1.02 | 90 | 1014.8 |
| 20260507084031 | 10 | 166 | 0.0 | 1.6 | 0.00 | 2.57 | 1.02 | 91 | 1014.8 |
| 20260507083030 | 10 | 93 | 0.0 | 3.2 | 0.00 | 2.57 | 1.02 | 91 | 1014.8 |
| 20260507082030 | 10 | 159 | 0.0 | 3.2 | 0.00 | 2.57 | 1.02 | 90 | 1014.7 |
| 20260507081030 | 10 | 0.0 | 3.2 | 0.03 | 2.57 | 1.02 | 92 | 1014.6 | |
| 20260507080031 | 9 | 239 | 0.0 | 1.6 | 0.03 | 2.57 | 1.02 | 93 | 1014.6 |
| 20260507075030 | 9 | 0.0 | 1.6 | 0.05 | 2.57 | 1.02 | 93 | 1014.5 | |
| 20260507074030 | 9 | 251 | 0.0 | 3.2 | 0.05 | 2.57 | 1.02 | 92 | 1014.4 |
| 20260507073031 | 8 | 213 | 0.0 | 3.2 | 0.05 | 2.57 | 1.02 | 93 | 1014.4 |
| 20260507072030 | 9 | 207 | 1.6 | 4.8 | 0.05 | 2.57 | 1.02 | 94 | 1014.2 |
| 20260507071030 | 9 | 147 | 0.0 | 3.2 | 0.03 | 2.54 | 0.99 | 94 | 1014.2 |
| 20260507070030 | 9 | 0.0 | 1.6 | 0.05 | 2.54 | 0.99 | 94 | 1014.1 | |
| 20260507065030 | 9 | 0.0 | 0.0 | 0.03 | 2.51 | 0.97 | 94 | 1014.1 | |
| 20260507064030 | 9 | 206 | 0.0 | 1.6 | 0.03 | 2.51 | 0.97 | 93 | 1014.1 |
| 20260507063030 | 9 | 200 | 0.0 | 3.2 | 0.08 | 2.51 | 0.97 | 93 | 1013.9 |
| 20260507062030 | 9 | 162 | 1.6 | 3.2 | 0.10 | 2.51 | 0.97 | 94 | 1013.9 |
| 20260507061030 | 8 | 99 | 0.0 | 1.6 | 0.10 | 2.51 | 0.97 | 95 | 1013.8 |
| 20260507060030 | 8 | 0.0 | 3.2 | 0.10 | 2.49 | 0.94 | 95 | 1013.8 | |
| 20260507055030 | 8 | 143 | 0.0 | 1.6 | 0.13 | 2.49 | 0.94 | 96 | 1013.6 |
| 20260507054030 | 8 | 0.0 | 0.0 | 0.15 | 2.49 | 0.94 | 96 | 1013.6 | |
| 20260507053030 | 8 | 0.0 | 0.0 | 0.13 | 2.44 | 0.89 | 96 | 1013.5 | |
| 20260507052030 | 8 | 0.0 | 0.0 | 0.15 | 2.41 | 0.86 | 96 | 1013.4 | |
| 20260507051030 | 8 | 0.0 | 1.6 | 0.20 | 2.41 | 0.86 | 97 | 1013.2 | |
| 20260507050030 | 8 | 0.0 | 1.6 | 0.23 | 2.39 | 0.84 | 97 | 1013.1 | |
| 20260507045030 | 8 | 0.0 | 0.0 | 0.25 | 2.36 | 0.81 | 97 | 1013.0 | |
| 20260507044031 | 8 | 0.0 | 1.6 | 0.28 | 2.34 | 0.79 | 97 | 1012.9 | |
| 20260507043031 | 8 | 0.0 | 0.0 | 0.28 | 2.31 | 0.76 | 97 | 1012.8 | |
| 20260507042030 | 8 | 0.0 | 0.0 | 0.25 | 2.26 | 0.71 | 97 | 1012.8 | |
| 20260507041030 | 8 | 0.0 | 1.6 | 0.23 | 2.21 | 0.66 | 97 | 1012.6 | |
| 20260507040030 | 8 | 68 | 0.0 | 1.6 | 0.20 | 2.16 | 0.61 | 98 | 1012.6 |
| 20260507035030 | 8 | 0.0 | 0.0 | 0.18 | 2.11 | 0.56 | 98 | 1012.5 | |
| 20260507034030 | 8 | 0.0 | 0.0 | 0.15 | 2.06 | 0.51 | 98 | 1012.4 | |
| 20260507033030 | 8 | 0.0 | 0.0 | 0.15 | 2.03 | 0.48 | 97 | 1012.4 | |
| 20260507032030 | 8 | 0.0 | 0.0 | 0.15 | 2.01 | 0.46 | 97 | 1012.2 | |
| 20260507031029 | 8 | 0.0 | 0.0 | 0.13 | 1.98 | 0.43 | 97 | 1012.2 | |
| 20260507030030 | 8 | 0.0 | 0.0 | 0.15 | 1.96 | 0.41 | 97 | 1012.1 | |
| 20260507025030 | 8 | 0.0 | 0.0 | 0.15 | 1.93 | 0.38 | 97 | 1012.1 | |
| 20260507023030 | 8 | 0.0 | 0.0 | 0.15 | 1.88 | 0.33 | 97 | 1012.0 | |
| 20260507022030 | 8 | 0.0 | 0.0 | 0.15 | 1.85 | 0.30 | 97 | 1012.0 | |
| 20260507021030 | 8 | 32 | 0.0 | 1.6 | 0.15 | 1.83 | 0.28 | 97 | 1011.9 |
| 20260507020031 | 8 | 28 | 0.0 | 3.2 | 0.15 | 1.80 | 0.25 | 97 | 1011.8 |
| 20260507015030 | 8 | 0.0 | 0.0 | 0.13 | 1.78 | 0.23 | 96 | 1011.8 | |
| 20260507014031 | 8 | 0.0 | 0.0 | 0.10 | 1.73 | 0.18 | 96 | 1011.7 | |
| 20260507013031 | 8 | 32 | 0.0 | 3.2 | 0.10 | 1.73 | 0.18 | 96 | 1011.7 |
| 20260507012030 | 8 | 38 | 0.0 | 3.2 | 0.08 | 1.70 | 0.15 | 96 | 1011.6 |
| 20260507011030 | 8 | 40 | 0.0 | 1.6 | 0.05 | 1.68 | 0.13 | 95 | 1011.5 |
| 20260507010031 | 8 | 0.0 | 0.0 | 0.05 | 1.65 | 0.10 | 95 | 1011.5 | |
| 20260507005031 | 8 | 175 | 0.0 | 3.2 | 0.05 | 1.65 | 0.10 | 95 | 1011.5 |
| 20260507004030 | 8 | 187 | 0.0 | 3.2 | 0.03 | 1.63 | 0.08 | 95 | 1011.5 |
| 20260507003031 | 8 | 33 | 0.0 | 3.2 | 0.03 | 1.63 | 0.08 | 96 | 1011.5 |
| 20260507002031 | 8 | 0.0 | 0.0 | 0.03 | 1.63 | 0.08 | 96 | 1011.5 | |
| 20260507001031 | 8 | 0.0 | 0.0 | 0.05 | 1.63 | 0.08 | 96 | 1011.6 | |
| 20260507000030 | 8 | 100 | 0.0 | 1.6 | 0.03 | 1.60 | 0.05 | 95 | 1011.5 |
| 20260506235030 | 8 | 28 | 0.0 | 1.6 | 0.03 | 1.60 | 0.05 | 95 | 1011.7 |
| 20260506234030 | 8 | 23 | 1.6 | 3.2 | 0.03 | 1.60 | 0.05 | 95 | 1011.6 |
| 20260506233030 | 8 | 40 | 0.0 | 3.2 | 0.05 | 1.60 | 0.05 | 95 | 1011.7 |
| 20260506232030 | 8 | 0.0 | 1.6 | 0.05 | 1.60 | 0.05 | 95 | 1011.8 | |
| 20260506231030 | 8 | 43 | 0.0 | 1.6 | 0.03 | 1.57 | 0.03 | 95 | 1011.8 |
| 20260506230031 | 8 | 0.0 | 1.6 | 0.03 | 1.57 | 0.03 | 95 | 1011.8 | |
| 20260506225031 | 8 | 0.0 | 0.0 | 0.03 | 1.57 | 0.03 | 96 | 1011.8 | |
| 20260506224030 | 8 | 56 | 0.0 | 3.2 | 0.03 | 1.57 | 0.03 | 96 | 1011.7 |
| 20260506223030 | 8 | 120 | 0.0 | 1.6 | 0.03 | 1.55 | 0.00 | 96 | 1011.7 |
| 20260506222030 | 8 | 37 | 0.0 | 3.2 | 0.03 | 1.55 | 0.00 | 95 | 1011.5 |
| 20260506221030 | 8 | 0.0 | 1.6 | 0.03 | 1.55 | 0.00 | 95 | 1011.4 | |
| 20260506220031 | 8 | 0.0 | 1.6 | 0.03 | 1.55 | 1.55 | 94 | 1011.5 | |
| 20260506215031 | 8 | 0.0 | 0.0 | 0.03 | 1.55 | 1.55 | 94 | 1011.3 | |
| 20260506214030 | 8 | 0.0 | 0.0 | 0.03 | 1.55 | 1.55 | 94 | 1011.4 | |
| 20260506213031 | 8 | 0.0 | 1.6 | 0.03 | 1.52 | 1.52 | 94 | 1011.4 | |
| 20260506212030 | 8 | 207 | 0.0 | 3.2 | 0.03 | 1.52 | 1.52 | 93 | 1011.3 |
| 20260506211030 | 8 | 51 | 0.0 | 1.6 | 0.05 | 1.52 | 1.52 | 95 | 1011.3 |
| 20260506210030 | 8 | 53 | 0.0 | 1.6 | 0.05 | 1.52 | 1.52 | 95 | 1011.1 |
| 20260506205030 | 8 | 39 | 0.0 | 3.2 | 0.08 | 1.52 | 1.52 | 96 | 1011.1 |
| 20260506204030 | 8 | 0.0 | 1.6 | 0.08 | 1.52 | 1.52 | 96 | 1011.1 | |
| 20260506203030 | 8 | 253 | 0.0 | 1.6 | 0.08 | 1.50 | 1.50 | 96 | 1011.1 |
| 20260506202030 | 8 | 33 | 0.0 | 1.6 | 0.08 | 1.50 | 1.50 | 96 | 1011.2 |
| 20260506201029 | 8 | 33 | 0.0 | 1.6 | 0.08 | 1.47 | 1.47 | 96 | 1011.1 |
| 20260506200031 | 8 | 29 | 1.6 | 4.8 | 0.10 | 1.47 | 1.47 | 96 | 1010.9 |
| 20260506195033 | 8 | 43 | 0.0 | 3.2 | 0.10 | 1.45 | 1.45 | 95 | 1010.8 |
| 20260506194030 | 8 | 33 | 1.6 | 6.4 | 0.15 | 1.45 | 1.45 | 95 | 1010.7 |
| 20260506193031 | 9 | 99 | 0.0 | 1.6 | 0.18 | 1.42 | 1.42 | 94 | 1010.6 |
| 20260506192030 | 9 | 142 | 0.0 | 1.6 | 0.20 | 1.42 | 1.42 | 94 | 1010.7 |
| 20260506191030 | 9 | 18 | 0.0 | 1.6 | 0.18 | 1.40 | 1.40 | 94 | 1010.5 |
| 20260506190031 | 9 | 0.0 | 1.6 | 0.20 | 1.37 | 1.37 | 95 | 1010.5 | |
| 20260506185030 | 9 | 0.0 | 0.0 | 0.20 | 1.35 | 1.35 | 96 | 1010.4 | |
| 20260506184031 | 9 | 0.0 | 0.0 | 0.18 | 1.30 | 1.30 | 96 | 1010.2 | |
| 20260506183030 | 9 | 30 | 0.0 | 3.2 | 0.18 | 1.24 | 1.24 | 96 | 1010.1 |
| 20260506182030 | 9 | 0.0 | 0.0 | 0.18 | 1.27 | 1.22 | 95 | 1009.9 | |
| 20260506181030 | 9 | 0.0 | 0.0 | 0.18 | 1.24 | 1.19 | 95 | 1009.8 | |
| 20260506180030 | 9 | 216 | 0.0 | 1.6 | 0.20 | 1.22 | 1.17 | 95 | 1009.6 |
| 20260506175030 | 9 | 185 | 0.0 | 1.6 | 0.23 | 1.19 | 1.14 | 93 | 1009.5 |
| 20260506174030 | 9 | 0.0 | 1.6 | 0.23 | 1.14 | 1.09 | 91 | 1009.5 | |
| 20260506173030 | 9 | 154 | 0.0 | 1.6 | 0.23 | 1.12 | 1.07 | 92 | 1009.4 |
| 20260506172029 | 9 | 140 | 0.0 | 3.2 | 0.23 | 1.09 | 1.04 | 92 | 1009.2 |
| 20260506171030 | 10 | 35 | 0.0 | 3.2 | 0.28 | 1.07 | 1.02 | 91 | 1009.2 |
| 20260506170031 | 10 | 177 | 3.2 | 9.7 | 0.25 | 1.02 | 0.97 | 90 | 1009.2 |
| 20260506165030 | 10 | 137 | 0.0 | 4.8 | 0.25 | 0.97 | 0.91 | 91 | 1009.1 |
| 20260506164030 | 10 | 0.0 | 3.2 | 0.23 | 0.91 | 0.86 | 91 | 1009.1 | |
| 20260506163030 | 10 | 232 | 0.0 | 3.2 | 0.23 | 0.89 | 0.84 | 91 | 1009.0 |
| 20260506162030 | 10 | 48 | 0.0 | 1.6 | 0.23 | 0.86 | 0.81 | 93 | 1009.0 |
| 20260506161030 | 10 | 48 | 0.0 | 3.2 | 0.15 | 0.79 | 0.74 | 92 | 1009.0 |
| 20260506160031 | 10 | 28 | 0.0 | 3.2 | 0.15 | 0.76 | 0.71 | 92 | 1009.0 |
| 20260506155031 | 10 | 30 | 1.6 | 3.2 | 0.10 | 0.71 | 0.66 | 92 | 1008.9 |
| 20260506154031 | 10 | 0.0 | 0.0 | 0.08 | 0.69 | 0.64 | 91 | 1008.8 | |
| 20260506153030 | 10 | 28 | 0.0 | 1.6 | 0.08 | 0.66 | 0.61 | 89 | 1008.7 |
| 20260506152030 | 10 | 28 | 1.6 | 3.2 | 0.05 | 0.64 | 0.58 | 89 | 1008.7 |
| 20260506151030 | 10 | 41 | 0.0 | 1.6 | 0.08 | 0.64 | 0.58 | 88 | 1008.7 |
| 20260506150031 | 10 | 53 | 0.0 | 3.2 | 0.10 | 0.64 | 0.56 | 89 | 1008.6 |
| 20260506145031 | 10 | 29 | 1.6 | 6.4 | 0.13 | 0.69 | 0.56 | 88 | 1008.6 |